sat.trackr.live / text

‹ back to catalog

BELINTERSAT-1

NORAD 41238 · 2016-001A

PAYLOAD ACTIVE UNKNOWN

§ Identity

Operator
Country
BELA
Launch date
2016-01-15
Launch site
XICLF
Launch vehicle
Mass (kg)
RCS (m²)
35.80

Purposes: comms

External: N2YO · Heavens-Above · Gunter

§ Orbital elements

Epoch: 2026-09-20T01:46:08.201856Z

Period
1,436.11 min
Inclination
0.0365°
Eccentricity
0.0000706
Mean motion
1.00270536 rev/d
Perigee alt
35,784.0 km
Apogee alt
35,789.9 km
Semi-major
42,165.1 km
B*
0.0000e+0
RAAN
76.2729°
Arg perigee
28.0029°
Mean anomaly
332.7365°
Rev number
3,918

§ Raw data

BELINTERSAT-11 41238U 16001A   26263.07370604  .00000103  00000+0  00000+0 0  99942 41238   0.0365  76.2729 0000706  28.0029 332.7365  1.00270536 39185

JSON: /api/v1/satellites/41238 · /tle

For live sub-satellite position, see the globe view (requires WebGL).

§ Visibility from observer

Set your observer location to see the next 7 days of passes ≥ 10°. The values pass through the URL so the page stays shareable.

No JS? Fill the form by hand. The geolocation button needs JavaScript.